{"data":{"norad_id":63829,"intl_designator":"2025-092AB","name":"STARLINK-33889","alt_names":[],"object_type":"PAYLOAD","status":"ACTIVE","operator":null,"country":"US","launch_date":"2025-05-04","launch_site_code":"AFETR","launch_vehicle":null,"mission":null,"orbit_class":"UNKNOWN","rcs_meters":null,"size_class":null,"mass_kg":null,"dimensions":null,"purposes":["comms"],"wikipedia_slug":null,"has_3d_model":false,"image_url":null,"decayed_at":null,"tle_current":{"epoch":"2026-05-25T04:06:10.977696Z","epoch_age_seconds":50545,"freshness":"FRESH","line1":"1 63829U 25092AB  26145.17096039  .00016652  00000+0  61309-3 0  9990","line2":"2 63829  43.0044 100.4322 0002570 276.7011  83.3548 15.27589523 60256","mean_motion":15.27589523,"eccentricity":0.000257,"inclination_deg":43.0044,"raan_deg":100.4322,"arg_perigee_deg":276.7011,"mean_anomaly_deg":83.3548,"bstar":0.0006130899999999999,"rev_number":6025,"period_min":94.266161054314,"perigee_km":481.25726340162,"apogee_km":484.7838983982,"semimajor_km":6861.1575808999,"source":"CELESTRAK","updated_at":"2026-05-25T13:38:20.144883Z"}}}